This demonstration page uses our WeatherBlox Daily Observations layout. Learn more.

Left ArrowRight Arrow

36.17497, -115.13722

Hourly Observations for September 20, 2015

Temp ( °F °C ) Dew Point ( °F °C ) Humidity (%) Winds ( mph kmh ) Pressure ( in mb ) Visibility ( mi km ) Precip ( " mm )
12:53 am 00:53 Clear 75 23.9 31 -0.6 20 20 NW 6 9 29.88 1012 10 16 N/A
1:53 am 01:53 Clear 78 25.6 33 0.6 19 19 SSW 3 6 29.88 1012 10 16 N/A
2:53 am 02:53 Clear 73 22.8 34 1.1 24 24 N N/A 29.89 1012 10 16 N/A
3:53 am 03:53 Clear 73 22.8 31 -0.6 21 21 NNW 5 7 29.90 1013 10 16 N/A
4:53 am 04:53 Clear 73 22.8 28 -2.2 19 19 NNW 6 9 29.91 1013 10 16 N/A
5:53 am 05:53 Clear 71 21.7 31 -0.6 23 23 WNW 3 6 29.93 1014 10 16 N/A
6:53 am 06:53 Sunny 72 22.2 29 -1.7 20 20 NNW 5 7 29.95 1014 10 16 N/A
7:53 am 07:53 Sunny 75 23.9 33 0.6 22 22 NW 3 6 29.96 1015 10 16 N/A
8:53 am 08:53 Sunny 81 27.2 32 undefined 17 17 N N/A 29.97 1015 10 16 N/A
9:53 am 09:53 Sunny 83 28.3 32 undefined 16 16 N N/A 29.99 1016 10 16 N/A
10:53 am 10:53 Sunny 88 31.1 31 -0.6 13 13 SSE 5 7 29.98 1015 10 16 N/A
11:53 am 11:53 Sunny 90 32.2 31 -0.6 12 12 ESE 7 11 29.97 1015 10 16 N/A
12:53 pm 12:53 Sunny 92 33.3 30 -1.1 11 11 S 5 7 29.94 1014 10 16 N/A
1:53 pm 13:53 Sunny 95 35 30 -1.1 10 10 undefined N/A 29.90 1012 10 16 N/A
2:53 pm 14:53 Sunny 95 35 27 -2.8 9 9 N N/A 29.87 1012 10 16 N/A
3:53 pm 15:53 Sunny 96 35.6 25 -3.9 8 8 N N/A 29.85 1011 10 16 N/A
4:53 pm 16:53 Sunny 96 35.6 22 -5.6 7 7 SSE 6 9 29.83 1010 10 16 N/A
5:53 pm 17:53 Sunny 96 35.6 23 -5 7 7 SSE 3 6 29.83 1010 10 16 N/A
6:53 pm 18:53 Clear 94 34.4 25 -3.9 8 8 SW 3 6 29.83 1010 10 16 N/A
7:53 pm 19:53 Clear 89 31.7 28 -2.2 11 11 NW 3 6 29.85 1011 10 16 N/A
8:53 pm 20:53 Clear 86 30 31 -0.6 14 14 W 7 11 29.85 1011 10 16 N/A
9:53 pm 21:53 Clear 82 27.8 28 -2.2 14 14 NNW 7 11 29.85 1011 10 16 N/A
10:53 pm 22:53 Clear 80 26.7 27 -2.8 14 14 NW 7 11 29.84 1011 10 16 N/A
11:53 pm 23:53 Clear 78 25.6 29 -1.7 16 16 SSW 7 11 29.84 1011 10 16 N/A

Powered by AerisWeather